Time,TemperatureF,DewpointF,PressureIn,WindDirection,WindDirectionDegrees,WindSpeedMPH,WindSpeedGustMPH,Humidity,HourlyPrecipIn,Conditions,Clouds,dailyrainin,SoftwareType,DateUTC
2013-04-20 00:01:00,42.5,33.4,29.96,WNW,302,4.0,5.0,70,0.00,,,0.36,Wunderground v.1.15,2013-04-20 04:01:00,
2013-04-20 00:04:00,42.4,32.6,29.96,NNE,20,4.0,6.0,68,0.00,,,0.36,Wunderground v.1.15,2013-04-20 04:04:00,
2013-04-20 00:05:00,42.4,32.9,29.96,NW,326,4.0,6.0,69,0.00,,,0.36,Wunderground v.1.15,2013-04-20 04:05:00,
2013-04-20 00:07:00,42.4,33.3,29.96,NW,319,4.0,6.0,70,0.00,,,0.36,Wunderground v.1.15,2013-04-20 04:07:00,
2013-04-20 00:08:00,42.4,33.7,29.96,NW,326,4.0,6.0,71,0.00,,,0.36,Wunderground v.1.15,2013-04-20 04:08:00,
2013-04-20 00:13:00,42.3,32.5,29.96,NNE,23,5.0,9.0,68,0.00,,,0.36,Wunderground v.1.15,2013-04-20 04:13:00,
2013-04-20 00:18:00,42.2,32.8,29.96,NE,36,4.0,9.0,69,0.00,,,0.00,Wunderground v.1.15,2013-04-20 04:18:00,
2013-04-20 00:24:00,42.1,32.7,29.97,NNW,328,3.0,4.0,69,0.00,,,0.00,Wunderground v.1.15,2013-04-20 04:24:00,
2013-04-20 00:30:00,41.9,32.8,29.97,NW,314,3.0,3.0,70,0.00,,,0.00,Wunderground v.1.15,2013-04-20 04:30:00,
2013-04-20 00:36:00,41.7,33.0,29.97,NW,323,4.0,6.0,71,0.00,,,0.00,Wunderground v.1.15,2013-04-20 04:36:00,
2013-04-20 00:42:00,41.7,33.0,29.97,NNE,21,4.0,6.0,71,0.00,,,0.00,Wunderground v.1.15,2013-04-20 04:42:00,
2013-04-20 00:48:00,41.7,32.6,29.98,NW,312,4.0,6.0,70,0.00,,,0.00,Wunderground v.1.15,2013-04-20 04:48:00,
2013-04-20 00:54:00,41.7,33.0,29.98,NNW,335,4.0,6.0,71,0.00,,,0.00,Wunderground v.1.15,2013-04-20 04:54:00,
2013-04-20 00:59:00,41.7,33.0,29.98,NW,324,4.0,6.0,71,0.00,,,0.00,Wunderground v.1.15,2013-04-20 04:59:00,
2013-04-20 01:05:00,41.7,33.0,29.98,NNE,18,4.0,5.0,71,0.00,,,0.00,Wunderground v.1.15,2013-04-20 05:05:00,
2013-04-20 01:10:00,41.5,33.1,29.99,NNW,345,4.0,4.0,72,0.00,,,0.00,Wunderground v.1.15,2013-04-20 05:10:00,
2013-04-20 01:15:00,41.2,33.2,29.98,NNE,26,3.0,4.0,73,0.00,,,0.00,Wunderground v.1.15,2013-04-20 05:15:00,
2013-04-20 01:21:00,41.0,32.7,29.99,NNW,337,3.0,4.0,72,0.00,,,0.00,Wunderground v.1.15,2013-04-20 05:21:00,
2013-04-20 01:26:00,40.9,32.6,29.99,North,352,3.0,4.0,72,0.00,,,0.00,Wunderground v.1.15,2013-04-20 05:26:00,
2013-04-20 01:32:00,40.8,32.1,29.99,NE,36,2.0,3.0,71,0.00,,,0.00,Wunderground v.1.15,2013-04-20 05:32:00,
2013-04-20 01:37:00,40.7,32.0,30.00,NNE,20,3.0,6.0,71,0.00,,,0.00,Wunderground v.1.15,2013-04-20 05:37:00,
2013-04-20 01:43:00,40.8,32.5,29.99,NNE,23,4.0,7.0,72,0.00,,,0.00,Wunderground v.1.15,2013-04-20 05:43:00,
2013-04-20 01:48:00,40.7,31.7,29.99,NNE,25,5.0,7.0,70,0.00,,,0.00,Wunderground v.1.15,2013-04-20 05:48:00,
2013-04-20 01:53:00,40.6,31.6,30.00,NW,315,5.0,8.0,70,0.00,,,0.00,Wunderground v.1.15,2013-04-20 05:53:00,
2013-04-20 01:59:00,40.7,31.7,30.00,NW,317,5.0,8.0,70,0.00,,,0.00,Wunderground v.1.15,2013-04-20 05:59:00,
2013-04-20 02:04:00,40.6,31.9,30.00,NE,55,4.0,5.0,71,0.00,,,0.00,Wunderground v.1.15,2013-04-20 06:04:00,
2013-04-20 02:10:00,40.5,31.5,30.00,NNW,338,5.0,5.0,70,0.00,,,0.00,Wunderground v.1.15,2013-04-20 06:10:00,
2013-04-20 02:15:00,40.3,31.6,30.00,NNW,338,4.0,6.0,71,0.00,,,0.00,Wunderground v.1.15,2013-04-20 06:15:00,
2013-04-20 02:21:00,40.3,30.9,30.00,North,352,4.0,7.0,69,0.00,,,0.00,Wunderground v.1.15,2013-04-20 06:21:00,
2013-04-20 02:26:00,40.3,30.6,30.00,NNE,14,5.0,7.0,68,0.00,,,0.00,Wunderground v.1.15,2013-04-20 06:26:00,
2013-04-20 02:32:00,40.2,30.1,30.00,NNW,338,5.0,6.0,67,0.00,,,0.00,Wunderground v.1.15,2013-04-20 06:32:00,
2013-04-20 02:37:00,40.1,30.7,30.01,North,359,6.0,10.0,69,0.00,,,0.00,Wunderground v.1.15,2013-04-20 06:37:00,
2013-04-20 02:43:00,40.1,30.4,30.01,NNE,16,6.0,10.0,68,0.00,,,0.00,Wunderground v.1.15,2013-04-20 06:43:00,
2013-04-20 02:49:00,39.9,30.9,30.01,NW,326,5.0,10.0,70,0.00,,,0.00,Wunderground v.1.15,2013-04-20 06:49:00,
2013-04-20 02:54:00,39.8,30.8,30.01,NNW,338,5.0,10.0,70,0.00,,,0.00,Wunderground v.1.15,2013-04-20 06:54:00,
2013-04-20 03:00:00,39.7,30.7,30.01,WNW,300,5.0,5.0,70,0.00,,,0.00,Wunderground v.1.15,2013-04-20 07:00:00,
2013-04-20 03:06:00,39.6,30.6,30.01,NNW,346,5.0,8.0,70,0.00,,,0.00,Wunderground v.1.15,2013-04-20 07:06:00,
2013-04-20 03:12:00,39.6,31.0,30.01,NNE,16,5.0,6.0,71,0.00,,,0.00,Wunderground v.1.15,2013-04-20 07:12:00,
2013-04-20 03:18:00,39.5,30.9,30.02,North,4,5.0,8.0,71,0.00,,,0.00,Wunderground v.1.15,2013-04-20 07:18:00,
2013-04-20 03:23:00,39.5,30.5,30.01,North,354,5.0,9.0,70,0.00,,,0.00,Wunderground v.1.15,2013-04-20 07:23:00,
2013-04-20 03:29:00,39.5,30.0,30.02,NNW,328,5.0,12.0,69,0.00,,,0.00,weatherlink.com 1.10,2013-04-20 07:29:00,
2013-04-20 03:34:00,39.4,30.4,30.02,NNW,329,5.0,6.0,70,0.00,,,0.00,Wunderground v.1.15,2013-04-20 07:34:00,
2013-04-20 03:41:00,39.5,30.2,30.03,NNW,346,5.0,6.0,69,0.00,,,0.00,Wunderground v.1.15,2013-04-20 07:41:00,
2013-04-20 03:46:00,39.4,30.4,30.03,NW,323,6.0,12.0,70,0.00,,,0.00,Wunderground v.1.15,2013-04-20 07:46:00,
2013-04-20 03:51:00,39.3,30.3,30.03,NE,38,7.0,10.0,70,0.00,,,0.00,Wunderground v.1.15,2013-04-20 07:51:00,
2013-04-20 03:57:00,39.2,29.9,30.03,NNE,22,6.0,10.0,69,0.00,,,0.00,Wunderground v.1.15,2013-04-20 07:57:00,
2013-04-20 04:03:00,39.1,30.1,30.04,NW,326,7.0,8.0,70,0.00,,,0.00,Wunderground v.1.15,2013-04-20 08:03:00,
2013-04-20 04:08:00,39.0,29.7,30.04,North,350,6.0,8.0,69,0.00,,,0.00,Wunderground v.1.15,2013-04-20 08:08:00,
2013-04-20 04:14:00,38.9,29.6,30.04,NNE,25,6.0,6.0,69,0.00,,,0.00,Wunderground v.1.15,2013-04-20 08:14:00,
2013-04-20 04:19:00,38.7,29.8,30.05,NNW,345,5.0,6.0,70,0.00,,,0.00,Wunderground v.1.15,2013-04-20 08:19:00,
2013-04-20 04:25:00,38.5,29.6,30.05,NNE,25,5.0,7.0,70,0.00,,,0.00,Wunderground v.1.15,2013-04-20 08:25:00,
2013-04-20 04:31:00,38.5,28.9,30.05,NNW,345,5.0,5.0,68,0.00,,,0.00,Wunderground v.1.15,2013-04-20 08:31:00,
2013-04-20 04:36:00,38.4,28.8,30.05,NNE,23,5.0,5.0,68,0.00,,,0.00,Wunderground v.1.15,2013-04-20 08:36:00,
2013-04-20 04:42:00,38.3,29.0,30.05,North,360,5.0,13.0,69,0.00,,,0.00,Wunderground v.1.15,2013-04-20 08:42:00,
2013-04-20 04:47:00,38.2,28.2,30.06,NNE,12,5.0,13.0,67,0.00,,,0.00,Wunderground v.1.15,2013-04-20 08:47:00,
2013-04-20 04:53:00,38.2,27.8,30.06,NNW,328,5.0,13.0,66,0.00,,,0.00,Wunderground v.1.15,2013-04-20 08:53:00,
2013-04-20 04:58:00,38.1,27.0,30.07,NW,324,5.0,13.0,64,0.00,,,0.00,Wunderground v.1.15,2013-04-20 08:58:00,
2013-04-20 05:03:00,38.0,26.9,30.07,NNW,330,4.0,5.0,64,0.00,,,0.00,Wunderground v.1.15,2013-04-20 09:03:00,
2013-04-20 05:09:00,37.8,27.5,30.07,NNE,18,4.0,7.0,66,0.00,,,0.00,Wunderground v.1.15,2013-04-20 09:09:00,
2013-04-20 05:15:00,37.9,26.0,30.07,NNW,347,3.0,9.0,63,0.00,,,0.00,weatherlink.com 1.10,2013-04-20 09:15:00,
2013-04-20 05:20:00,37.7,25.8,30.07,NNW,330,4.0,4.0,62,0.00,,,0.00,Wunderground v.1.15,2013-04-20 09:20:00,
2013-04-20 05:27:00,37.7,25.8,30.08,NNW,345,4.0,4.0,62,0.00,,,0.00,Wunderground v.1.15,2013-04-20 09:27:00,
2013-04-20 05:33:00,37.5,25.7,30.08,NNE,22,4.0,5.0,62,0.00,,,0.00,Wunderground v.1.15,2013-04-20 09:33:00,
2013-04-20 05:39:00,37.5,25.7,30.08,NNE,23,4.0,7.0,62,0.00,,,0.00,Wunderground v.1.15,2013-04-20 09:39:00,
2013-04-20 05:44:00,37.4,25.2,30.08,NNW,330,4.0,9.0,61,0.00,,,0.00,Wunderground v.1.15,2013-04-20 09:44:00,
2013-04-20 05:50:00,37.4,26.3,30.09,NNW,334,4.0,9.0,64,0.00,,,0.00,Wunderground v.1.15,2013-04-20 09:50:00,
2013-04-20 05:55:00,37.2,26.1,30.09,NNW,342,4.0,9.0,64,0.00,,,0.00,Wunderground v.1.15,2013-04-20 09:55:00,
2013-04-20 06:00:00,36.9,26.2,30.09,NNW,328,3.0,3.0,65,0.00,,,0.00,Wunderground v.1.15,2013-04-20 10:00:00,
2013-04-20 06:06:00,36.6,26.3,30.09,NNE,16,3.0,3.0,66,0.00,,,0.00,Wunderground v.1.15,2013-04-20 10:06:00,
2013-04-20 06:11:00,36.4,26.5,30.10,NNW,328,3.0,3.0,67,0.00,,,0.00,Wunderground v.1.15,2013-04-20 10:11:00,
2013-04-20 06:16:00,36.4,26.5,30.10,NNW,331,2.0,4.0,67,0.00,,,0.00,Wunderground v.1.15,2013-04-20 10:16:00,
2013-04-20 06:22:00,36.3,26.4,30.10,NNW,332,3.0,4.0,67,0.00,,,0.00,Wunderground v.1.15,2013-04-20 10:22:00,
2013-04-20 06:28:00,36.2,27.0,30.10,NNW,333,3.0,4.0,69,0.00,,,0.00,Wunderground v.1.15,2013-04-20 10:28:00,
2013-04-20 06:33:00,36.2,26.6,30.10,NNE,20,3.0,3.0,68,0.00,,,0.00,Wunderground v.1.15,2013-04-20 10:33:00,
2013-04-20 06:39:00,36.2,26.6,30.10,NW,314,3.0,4.0,68,0.00,,,0.00,Wunderground v.1.15,2013-04-20 10:39:00,
2013-04-20 06:44:00,36.1,26.6,30.11,NNW,328,3.0,5.0,68,0.00,,,0.00,Wunderground v.1.15,2013-04-20 10:44:00,
2013-04-20 06:50:00,35.9,26.7,30.11,NNW,340,3.0,3.0,69,0.00,,,0.00,Wunderground v.1.15,2013-04-20 10:50:00,
2013-04-20 06:56:00,35.8,26.3,30.11,NNE,21,2.0,5.0,68,0.00,,,0.00,Wunderground v.1.15,2013-04-20 10:56:00,
2013-04-20 07:02:00,35.6,26.4,30.12,NNW,330,2.0,2.0,69,0.00,,,0.00,Wunderground v.1.15,2013-04-20 11:02:00,
2013-04-20 07:07:00,35.3,26.5,30.12,NW,313,1.0,2.0,70,0.00,,,0.00,Wunderground v.1.15,2013-04-20 11:07:00,
2013-04-20 07:13:00,35.1,27.3,30.13,NW,317,1.0,1.0,73,0.00,,,0.00,Wunderground v.1.15,2013-04-20 11:13:00,
2013-04-20 07:18:00,34.8,27.0,30.13,NW,323,1.0,1.0,73,0.00,,,0.00,Wunderground v.1.15,2013-04-20 11:18:00,
2013-04-20 07:24:00,34.6,27.2,30.13,North,1,0.0,0.0,74,0.00,,,0.00,Wunderground v.1.15,2013-04-20 11:24:00,
2013-04-20 07:30:00,34.4,27.3,30.14,North,1,0.0,0.0,75,0.00,,,0.00,Wunderground v.1.15,2013-04-20 11:30:00,
2013-04-20 07:35:00,34.3,28.2,30.14,North,1,0.0,0.0,78,0.00,,,0.00,Wunderground v.1.15,2013-04-20 11:35:00,
2013-04-20 07:41:00,34.1,28.0,30.15,North,6,0.0,0.0,78,0.00,,,0.00,Wunderground v.1.15,2013-04-20 11:41:00,
2013-04-20 07:47:00,34.1,28.0,30.15,NW,311,0.0,2.0,78,0.00,,,0.00,Wunderground v.1.15,2013-04-20 11:47:00,
2013-04-20 07:52:00,34.3,28.2,30.15,NW,308,0.0,2.0,78,0.00,,,0.00,Wunderground v.1.15,2013-04-20 11:52:00,
2013-04-20 07:58:00,34.3,28.2,30.15,North,4,0.0,2.0,78,0.00,,,0.00,Wunderground v.1.15,2013-04-20 11:58:00,
2013-04-20 08:03:00,34.5,29.0,30.16,North,4,0.0,0.0,80,0.00,,,0.00,Wunderground v.1.15,2013-04-20 12:03:00,
2013-04-20 08:09:00,34.7,28.9,30.16,East,94,0.0,0.0,79,0.00,,,0.00,Wunderground v.1.15,2013-04-20 12:09:00,
2013-04-20 08:15:00,35.0,28.5,30.16,NE,51,0.0,0.0,77,0.00,,,0.00,Wunderground v.1.15,2013-04-20 12:15:00,
2013-04-20 08:21:00,35.5,28.4,30.16,ENE,70,0.0,0.0,75,0.00,,,0.00,Wunderground v.1.15,2013-04-20 12:21:00,
2013-04-20 08:27:00,35.8,28.6,30.17,ENE,74,0.0,0.0,75,0.00,,,0.00,Wunderground v.1.15,2013-04-20 12:27:00,
2013-04-20 08:33:00,36.1,29.3,30.17,ENE,74,0.0,0.0,76,0.00,,,0.00,Wunderground v.1.15,2013-04-20 12:33:00,
2013-04-20 08:38:00,36.5,29.3,30.17,ENE,74,0.0,0.0,75,0.00,,,0.00,Wunderground v.1.15,2013-04-20 12:38:00,
2013-04-20 08:44:00,37.2,30.3,30.17,ENE,73,0.0,0.0,76,0.00,,,0.00,Wunderground v.1.15,2013-04-20 12:44:00,
2013-04-20 08:49:00,37.6,29.4,30.17,ENE,59,0.0,2.0,72,0.00,,,0.00,Wunderground v.1.15,2013-04-20 12:49:00,
2013-04-20 08:55:00,38.4,29.5,30.18,NNE,13,1.0,2.0,70,0.00,,,0.00,Wunderground v.1.15,2013-04-20 12:55:00,
2013-04-20 09:00:00,39.1,30.1,30.18,NNE,12,2.0,2.0,70,0.00,,,0.00,Wunderground v.1.15,2013-04-20 13:00:00,
2013-04-20 09:06:00,39.3,30.0,30.18,NNE,16,2.0,3.0,69,0.00,,,0.00,Wunderground v.1.15,2013-04-20 13:06:00,
2013-04-20 09:12:00,39.7,31.1,30.18,NNW,327,2.0,3.0,71,0.00,,,0.00,Wunderground v.1.15,2013-04-20 13:12:00,
2013-04-20 09:18:00,40.2,29.7,30.18,North,1,2.0,3.0,66,0.00,,,0.00,Wunderground v.1.15,2013-04-20 13:18:00,
2013-04-20 09:24:00,40.6,30.5,30.18,NNW,334,3.0,5.0,67,0.00,,,0.00,Wunderground v.1.15,2013-04-20 13:24:00,
2013-04-20 09:30:00,41.0,29.7,30.18,North,354,3.0,4.0,64,0.00,,,0.00,Wunderground v.1.15,2013-04-20 13:30:00,
2013-04-20 09:36:00,41.5,31.4,30.18,NNE,20,3.0,5.0,67,0.00,,,0.00,Wunderground v.1.15,2013-04-20 13:36:00,
2013-04-20 09:42:00,41.9,31.0,30.18,NNE,13,3.0,5.0,65,0.00,,,0.00,Wunderground v.1.15,2013-04-20 13:42:00,
2013-04-20 09:47:00,42.9,31.9,30.18,NW,326,3.0,5.0,65,0.00,,,0.00,Wunderground v.1.15,2013-04-20 13:47:00,
2013-04-20 09:53:00,43.2,29.4,30.18,NNW,347,4.0,6.0,58,0.00,,,0.00,Wunderground v.1.15,2013-04-20 13:53:00,
2013-04-20 09:58:00,43.8,30.4,30.18,NNE,18,4.0,6.0,59,0.00,,,0.00,Wunderground v.1.15,2013-04-20 13:58:00,
2013-04-20 10:04:00,44.1,28.5,30.19,NNW,330,4.0,5.0,54,0.00,,,0.00,Wunderground v.1.15,2013-04-20 14:04:00,
2013-04-20 10:10:00,44.3,28.7,30.19,NNW,343,4.0,5.0,54,0.00,,,0.00,Wunderground v.1.15,2013-04-20 14:10:00,
2013-04-20 10:16:00,44.2,29.0,30.19,NNW,333,5.0,7.0,55,0.00,,,0.00,Wunderground v.1.15,2013-04-20 14:16:00,
2013-04-20 10:22:00,44.4,28.3,30.19,North,6,5.0,5.0,53,0.00,,,0.00,Wunderground v.1.15,2013-04-20 14:22:00,
2013-04-20 10:28:00,44.7,28.1,30.19,NNW,342,5.0,7.0,52,0.00,,,0.00,Wunderground v.1.15,2013-04-20 14:28:00,
2013-04-20 10:33:00,45.0,29.8,30.19,NNW,336,4.0,7.0,55,0.00,,,0.00,Wunderground v.1.15,2013-04-20 14:33:00,
2013-04-20 10:39:00,45.5,28.4,30.20,NNW,338,4.0,7.0,51,0.00,,,0.00,Wunderground v.1.15,2013-04-20 14:39:00,
2013-04-20 10:45:00,45.2,28.6,30.20,North,358,5.0,6.0,52,0.00,,,0.00,Wunderground v.1.15,2013-04-20 14:45:00,
2013-04-20 10:51:00,45.2,28.1,30.20,NNE,18,5.0,6.0,51,0.00,,,0.00,Wunderground v.1.15,2013-04-20 14:51:00,
2013-04-20 10:57:00,45.7,29.1,30.20,North,349,5.0,7.0,52,0.00,,,0.00,Wunderground v.1.15,2013-04-20 14:57:00,
2013-04-20 11:03:00,45.7,28.1,30.20,NW,321,5.0,7.0,50,0.00,,,0.00,Wunderground v.1.15,2013-04-20 15:03:00,
2013-04-20 11:09:00,46.1,28.5,30.21,North,349,5.0,7.0,50,0.00,,,0.00,Wunderground v.1.15,2013-04-20 15:09:00,
2013-04-20 11:15:00,45.9,28.8,30.20,North,5,5.0,7.0,51,0.00,,,0.00,Wunderground v.1.15,2013-04-20 15:15:00,
2013-04-20 11:21:00,46.3,29.6,30.21,NNW,343,4.0,5.0,52,0.00,,,0.00,Wunderground v.1.15,2013-04-20 15:21:00,
2013-04-20 11:27:00,46.8,28.6,30.21,ENE,73,4.0,6.0,49,0.00,,,0.00,Wunderground v.1.15,2013-04-20 15:27:00,
2013-04-20 11:32:00,46.8,28.1,30.21,WNW,294,5.0,6.0,48,0.00,,,0.00,Wunderground v.1.15,2013-04-20 15:32:00,
2013-04-20 11:38:00,46.5,28.3,30.21,NNW,336,4.0,6.0,49,0.00,,,0.00,Wunderground v.1.15,2013-04-20 15:38:00,
2013-04-20 11:44:00,47.5,28.8,30.21,NW,324,3.0,8.0,48,0.00,,,0.00,Wunderground v.1.15,2013-04-20 15:44:00,
2013-04-20 11:50:00,47.9,29.6,30.21,North,8,3.0,8.0,49,0.00,,,0.00,Wunderground v.1.15,2013-04-20 15:50:00,
2013-04-20 11:55:00,47.7,28.4,30.21,NNW,339,3.0,8.0,47,0.00,,,0.00,Wunderground v.1.15,2013-04-20 15:55:00,
2013-04-20 12:00:00,48.1,29.8,30.21,NNW,339,3.0,6.0,49,0.00,,,0.00,Wunderground v.1.15,2013-04-20 16:00:00,
2013-04-20 12:06:00,48.0,28.7,30.21,NNE,22,3.0,6.0,47,0.00,,,0.00,Wunderground v.1.15,2013-04-20 16:06:00,
2013-04-20 12:12:00,48.3,28.5,30.21,NNE,31,4.0,4.0,46,0.00,,,0.00,Wunderground v.1.15,2013-04-20 16:12:00,
2013-04-20 12:18:00,48.5,29.7,30.21,North,351,4.0,5.0,48,0.00,,,0.00,Wunderground v.1.15,2013-04-20 16:18:00,
2013-04-20 12:24:00,49.1,30.7,30.21,NNE,25,4.0,5.0,49,0.00,,,0.00,Wunderground v.1.15,2013-04-20 16:24:00,
2013-04-20 12:30:00,49.2,28.2,30.21,NE,49,3.0,6.0,44,0.00,,,0.00,Wunderground v.1.15,2013-04-20 16:30:00,
2013-04-20 12:36:00,49.1,29.2,30.21,NE,50,3.0,6.0,46,0.00,,,0.00,Wunderground v.1.15,2013-04-20 16:36:00,
2013-04-20 12:41:00,49.7,29.2,30.20,ENE,72,3.0,6.0,45,0.00,,,0.00,Wunderground v.1.15,2013-04-20 16:41:00,
2013-04-20 12:46:00,49.9,30.5,30.20,NE,40,3.0,6.0,47,0.00,,,0.00,Wunderground v.1.15,2013-04-20 16:46:00,
2013-04-20 12:52:00,50.4,29.8,30.20,NNW,336,3.0,6.0,45,0.00,,,0.00,Wunderground v.1.15,2013-04-20 16:52:00,
2013-04-20 12:58:00,50.3,27.5,30.20,NW,323,5.0,7.0,41,0.00,,,0.00,Wunderground v.1.15,2013-04-20 16:58:00,
2013-04-20 13:04:00,50.1,26.7,30.20,NNW,339,5.0,7.0,40,0.00,,,0.00,Wunderground v.1.15,2013-04-20 17:04:00,
2013-04-20 13:09:00,50.3,27.5,30.20,NNW,336,5.0,7.0,41,0.00,,,0.00,Wunderground v.1.15,2013-04-20 17:09:00,
2013-04-20 13:15:00,50.8,27.9,30.20,NNW,338,6.0,8.0,41,0.00,,,0.00,Wunderground v.1.15,2013-04-20 17:15:00,
2013-04-20 13:21:00,50.8,28.0,30.20,NNE,23,3.0,10.0,42,0.00,,,0.00,weatherlink.com 1.10,2013-04-20 17:21:00,
2013-04-20 13:26:00,51.0,27.5,30.20,NNW,340,5.0,7.0,40,0.00,,,0.00,Wunderground v.1.15,2013-04-20 17:26:00,
2013-04-20 13:32:00,51.0,26.3,30.20,NNW,332,6.0,7.0,38,0.00,,,0.00,Wunderground v.1.15,2013-04-20 17:32:00,
2013-04-20 13:38:00,51.3,28.4,30.19,NNE,14,5.0,7.0,41,0.00,,,0.00,Wunderground v.1.15,2013-04-20 17:38:00,
2013-04-20 13:44:00,51.5,27.3,30.19,NNW,339,5.0,9.0,39,0.00,,,0.00,Wunderground v.1.15,2013-04-20 17:44:00,
2013-04-20 13:50:00,51.9,27.7,30.19,North,353,5.0,5.0,39,0.00,,,0.00,Wunderground v.1.15,2013-04-20 17:50:00,
2013-04-20 13:55:00,52.2,27.3,30.19,North,5,4.0,7.0,38,0.00,,,0.00,Wunderground v.1.15,2013-04-20 17:55:00,
2013-04-20 14:00:00,52.4,27.5,30.19,NNW,335,5.0,5.0,38,0.00,,,0.00,Wunderground v.1.15,2013-04-20 18:00:00,
2013-04-20 14:06:00,52.4,27.0,30.19,NW,326,4.0,7.0,37,0.00,,,0.00,weatherlink.com 1.10,2013-04-20 18:06:00,
2013-04-20 14:11:00,52.6,30.1,30.19,NE,50,4.0,5.0,42,0.00,,,0.00,Wunderground v.1.15,2013-04-20 18:11:00,
2013-04-20 14:16:00,52.6,30.7,30.19,North,1,4.0,5.0,43,0.00,,,0.00,Wunderground v.1.15,2013-04-20 18:16:00,
2013-04-20 14:22:00,52.0,29.0,30.19,NNE,32,3.0,6.0,41,0.00,,,0.00,Wunderground v.1.15,2013-04-20 18:22:00,
2013-04-20 14:27:00,52.6,26.4,30.19,North,354,5.0,8.0,36,0.00,,,0.00,Wunderground v.1.15,2013-04-20 18:27:00,
2013-04-20 14:32:00,53.1,28.8,30.19,NNW,336,5.0,5.0,39,0.00,,,0.00,Wunderground v.1.15,2013-04-20 18:32:00,
2013-04-20 14:38:00,53.4,27.1,30.19,NNW,339,5.0,7.0,36,0.00,,,0.00,Wunderground v.1.15,2013-04-20 18:38:00,
2013-04-20 14:43:00,53.2,27.6,30.19,North,5,5.0,9.0,37,0.00,,,0.00,Wunderground v.1.15,2013-04-20 18:43:00,
2013-04-20 14:48:00,53.8,30.0,30.19,NNE,26,4.0,9.0,40,0.00,,,0.00,Wunderground v.1.15,2013-04-20 18:48:00,
2013-04-20 14:54:00,53.4,29.0,30.19,NNE,13,4.0,9.0,39,0.00,,,0.00,Wunderground v.1.15,2013-04-20 18:54:00,
2013-04-20 15:00:00,53.1,30.0,30.19,NNW,328,4.0,5.0,41,0.00,,,0.00,Wunderground v.1.15,2013-04-20 19:00:00,
2013-04-20 15:06:00,53.2,30.7,30.19,NNE,12,4.0,7.0,42,0.00,,,0.00,Wunderground v.1.15,2013-04-20 19:06:00,
2013-04-20 15:11:00,53.2,30.1,30.19,SSW,207,3.0,4.0,41,0.00,,,0.00,Wunderground v.1.15,2013-04-20 19:11:00,
2013-04-20 15:16:00,53.1,28.8,30.19,NNW,328,4.0,7.0,39,0.00,,,0.00,Wunderground v.1.15,2013-04-20 19:16:00,
2013-04-20 15:21:00,52.7,29.6,30.19,North,354,5.0,12.0,41,0.00,,,0.00,Wunderground v.1.15,2013-04-20 19:21:00,
2013-04-20 15:27:00,52.7,30.2,30.19,NNW,338,5.0,12.0,42,0.00,,,0.00,Wunderground v.1.15,2013-04-20 19:27:00,
2013-04-20 15:32:00,52.8,29.1,30.19,NNW,329,4.0,5.0,40,0.00,,,0.00,Wunderground v.1.15,2013-04-20 19:32:00,
2013-04-20 15:37:00,52.6,28.3,30.19,NE,50,3.0,6.0,39,0.00,,,0.00,Wunderground v.1.15,2013-04-20 19:37:00,
2013-04-20 15:43:00,52.9,29.8,30.19,NW,324,3.0,10.0,41,0.00,,,0.00,Wunderground v.1.15,2013-04-20 19:43:00,
2013-04-20 15:48:00,52.9,29.8,30.20,NNE,32,4.0,10.0,41,0.00,,,0.00,Wunderground v.1.15,2013-04-20 19:48:00,
2013-04-20 15:53:00,53.1,30.6,30.19,NNW,345,4.0,10.0,42,0.00,,,0.00,Wunderground v.1.15,2013-04-20 19:53:00,
2013-04-20 15:58:00,53.2,31.3,30.19,NNW,339,3.0,10.0,43,0.00,,,0.00,Wunderground v.1.15,2013-04-20 19:58:00,
2013-04-20 16:04:00,53.3,30.2,30.19,North,353,4.0,6.0,41,0.00,,,0.00,Wunderground v.1.15,2013-04-20 20:04:00,
2013-04-20 16:10:00,53.3,29.6,30.20,NNW,336,4.0,4.0,40,0.00,,,0.00,Wunderground v.1.15,2013-04-20 20:10:00,
2013-04-20 16:15:00,53.3,30.2,30.19,NNW,335,4.0,4.0,41,0.00,,,0.00,Wunderground v.1.15,2013-04-20 20:15:00,
2013-04-20 16:21:00,53.5,29.7,30.20,NNW,345,4.0,7.0,40,0.00,,,0.00,Wunderground v.1.15,2013-04-20 20:21:00,
2013-04-20 16:26:00,53.3,29.6,30.20,NW,321,5.0,7.0,40,0.00,,,0.00,Wunderground v.1.15,2013-04-20 20:26:00,
2013-04-20 16:32:00,53.3,29.6,30.20,North,349,4.0,5.0,40,0.00,,,0.00,Wunderground v.1.15,2013-04-20 20:32:00,
2013-04-20 16:38:00,53.6,29.8,30.20,NE,42,4.0,8.0,40,0.00,,,0.00,Wunderground v.1.15,2013-04-20 20:38:00,
2013-04-20 16:44:00,53.5,29.1,30.20,North,4,5.0,9.0,39,0.00,,,0.00,Wunderground v.1.15,2013-04-20 20:44:00,
2013-04-20 16:50:00,53.3,28.9,30.20,NW,317,5.0,8.0,39,0.00,,,0.00,Wunderground v.1.15,2013-04-20 20:50:00,
2013-04-20 16:56:00,53.5,29.1,30.20,NE,39,4.0,8.0,39,0.00,,,0.00,Wunderground v.1.15,2013-04-20 20:56:00,
2013-04-20 17:02:00,53.4,29.0,30.20,North,349,5.0,8.0,39,0.00,,,0.00,Wunderground v.1.15,2013-04-20 21:02:00,
2013-04-20 17:09:00,53.1,28.1,30.21,ENE,58,5.0,8.0,38,0.00,,,0.00,Wunderground v.1.15,2013-04-20 21:09:00,
2013-04-20 17:14:00,53.3,28.9,30.21,NNW,339,5.0,7.0,39,0.00,,,0.00,Wunderground v.1.15,2013-04-20 21:14:00,
2013-04-20 17:20:00,53.3,30.2,30.21,NNW,343,4.0,4.0,41,0.00,,,0.00,Wunderground v.1.15,2013-04-20 21:20:00,
2013-04-20 17:26:00,53.1,28.8,30.21,ENE,67,5.0,7.0,39,0.00,,,0.00,Wunderground v.1.15,2013-04-20 21:26:00,
2013-04-20 17:32:00,53.0,28.7,30.21,NNW,338,5.0,5.0,39,0.00,,,0.00,Wunderground v.1.15,2013-04-20 21:32:00,
2013-04-20 17:38:00,53.1,28.8,30.21,NNE,19,5.0,7.0,39,0.00,,,0.00,Wunderground v.1.15,2013-04-20 21:38:00,
2013-04-20 17:43:00,53.0,28.0,30.21,NW,317,6.0,8.0,38,0.00,,,0.00,Wunderground v.1.15,2013-04-20 21:43:00,
2013-04-20 17:48:00,52.8,28.5,30.21,NNW,338,6.0,8.0,39,0.00,,,0.00,Wunderground v.1.15,2013-04-20 21:48:00,
2013-04-20 17:54:00,52.9,29.2,30.21,NNE,26,5.0,8.0,40,0.00,,,0.00,Wunderground v.1.15,2013-04-20 21:54:00,
2013-04-20 17:59:00,52.9,28.0,30.22,NNE,18,5.0,8.0,38,0.00,,,0.00,Wunderground v.1.15,2013-04-20 21:59:00,
2013-04-20 18:05:00,52.8,28.5,30.22,NW,312,5.0,6.0,39,0.00,,,0.00,Wunderground v.1.15,2013-04-20 22:05:00,
2013-04-20 18:10:00,52.8,29.0,30.22,NNE,18,6.0,10.0,40,0.00,,,0.00,weatherlink.com 1.10,2013-04-20 22:10:00,
2013-04-20 18:16:00,52.9,28.6,30.22,North,9,5.0,8.0,39,0.00,,,0.00,Wunderground v.1.15,2013-04-20 22:16:00,
2013-04-20 18:22:00,52.7,28.4,30.22,NNW,340,5.0,6.0,39,0.00,,,0.00,Wunderground v.1.15,2013-04-20 22:22:00,
2013-04-20 18:28:00,52.7,29.6,30.22,NNW,341,6.0,10.0,41,0.00,,,0.00,Wunderground v.1.15,2013-04-20 22:28:00,
2013-04-20 18:34:00,52.6,28.9,30.23,NNW,341,5.0,7.0,40,0.00,,,0.00,Wunderground v.1.15,2013-04-20 22:34:00,
2013-04-20 18:39:00,52.5,28.8,30.23,NNW,336,5.0,7.0,40,0.00,,,0.00,Wunderground v.1.15,2013-04-20 22:39:00,
2013-04-20 18:45:00,52.2,28.0,30.23,NW,308,5.0,9.0,39,0.00,,,0.00,Wunderground v.1.15,2013-04-20 22:45:00,
2013-04-20 18:50:00,52.1,29.7,30.23,ENE,68,5.0,9.0,42,0.00,,,0.00,Wunderground v.1.15,2013-04-20 22:50:00,
2013-04-20 18:56:00,52.0,29.0,30.23,NW,322,4.0,9.0,41,0.00,,,0.00,Wunderground v.1.15,2013-04-20 22:56:00,
2013-04-20 19:01:00,51.9,28.9,30.23,ESE,108,4.0,5.0,41,0.00,,,0.00,Wunderground v.1.15,2013-04-20 23:01:00,
2013-04-20 19:06:00,51.7,28.7,30.24,NW,322,3.0,5.0,41,0.00,,,0.00,Wunderground v.1.15,2013-04-20 23:06:00,
2013-04-20 19:12:00,51.6,29.2,30.24,NW,318,4.0,6.0,42,0.00,,,0.00,Wunderground v.1.15,2013-04-20 23:12:00,
2013-04-20 19:18:00,51.4,29.1,30.24,NNE,16,4.0,6.0,42,0.00,,,0.00,Wunderground v.1.15,2013-04-20 23:18:00,
2013-04-20 19:23:00,51.3,29.5,30.24,NW,326,4.0,7.0,43,0.00,,,0.00,Wunderground v.1.15,2013-04-20 23:23:00,
2013-04-20 19:29:00,51.1,29.9,30.24,NNW,333,3.0,7.0,44,0.00,,,0.00,Wunderground v.1.15,2013-04-20 23:29:00,
2013-04-20 19:34:00,50.9,29.7,30.24,NNW,335,3.0,3.0,44,0.00,,,0.00,Wunderground v.1.15,2013-04-20 23:34:00,
2013-04-20 19:40:00,50.6,29.5,30.24,NNW,330,3.0,3.0,44,0.00,,,0.00,Wunderground v.1.15,2013-04-20 23:40:00,
2013-04-20 19:45:00,50.4,29.8,30.24,North,11,3.0,12.0,45,0.00,,,0.00,Wunderground v.1.15,2013-04-20 23:45:00,
2013-04-20 19:51:00,50.1,30.1,30.25,North,352,3.0,12.0,46,0.00,,,0.00,Wunderground v.1.15,2013-04-20 23:51:00,
2013-04-20 19:57:00,49.8,30.4,30.25,NNW,330,2.0,12.0,47,0.00,,,0.00,Wunderground v.1.15,2013-04-20 23:57:00,
2013-04-20 20:03:00,49.6,30.7,30.25,NNW,336,2.0,2.0,48,0.00,,,0.00,Wunderground v.1.15,2013-04-21 00:03:00,
2013-04-20 20:09:00,49.4,30.0,30.26,NW,321,2.0,3.0,47,0.00,,,0.00,Wunderground v.1.15,2013-04-21 00:09:00,
2013-04-20 20:15:00,49.4,30.0,30.26,NW,322,2.0,3.0,47,0.00,,,0.00,Wunderground v.1.15,2013-04-21 00:15:00,
2013-04-20 20:20:00,49.3,29.9,30.27,NNW,338,1.0,1.0,47,0.00,,,0.00,Wunderground v.1.15,2013-04-21 00:20:00,
2013-04-20 20:26:00,49.1,29.7,30.27,North,4,1.0,1.0,47,0.00,,,0.00,Wunderground v.1.15,2013-04-21 00:26:00,
2013-04-20 20:31:00,48.9,30.1,30.27,North,4,0.0,1.0,48,0.00,,,0.00,Wunderground v.1.15,2013-04-21 00:31:00,
2013-04-20 20:37:00,48.7,29.9,30.28,NNE,30,0.0,1.0,48,0.00,,,0.00,Wunderground v.1.15,2013-04-21 00:37:00,
2013-04-20 20:42:00,48.6,29.8,30.28,NW,324,0.0,4.0,48,0.00,,,0.00,Wunderground v.1.15,2013-04-21 00:42:00,
2013-04-20 20:48:00,48.5,30.2,30.28,NW,324,0.0,4.0,49,0.00,,,0.00,Wunderground v.1.15,2013-04-21 00:48:00,
2013-04-20 20:54:00,48.1,29.8,30.29,NW,325,0.0,4.0,49,0.00,,,0.00,Wunderground v.1.15,2013-04-21 00:54:00,
2013-04-20 21:01:00,47.7,30.0,30.29,SSW,195,0.0,0.0,50,0.00,,,0.00,Wunderground v.1.15,2013-04-21 01:01:00,
2013-04-20 21:06:00,47.3,29.6,30.29,SSW,195,0.0,0.0,50,0.00,,,0.00,Wunderground v.1.15,2013-04-21 01:06:00,
2013-04-20 21:11:00,47.1,29.9,30.29,SSW,195,0.0,0.0,51,0.00,,,0.00,Wunderground v.1.15,2013-04-21 01:11:00,
2013-04-20 21:17:00,47.0,29.8,30.29,SSW,195,0.0,0.0,51,0.00,,,0.00,Wunderground v.1.15,2013-04-21 01:17:00,
2013-04-20 21:23:00,47.1,29.9,30.30,SSW,195,0.0,0.0,51,0.00,,,0.00,Wunderground v.1.15,2013-04-21 01:23:00,
2013-04-20 21:29:00,46.9,30.6,30.30,SSW,195,0.0,0.0,53,0.00,,,0.00,Wunderground v.1.15,2013-04-21 01:29:00,
2013-04-20 21:34:00,46.5,30.3,30.30,SSW,195,0.0,1.0,53,0.00,,,0.00,Wunderground v.1.15,2013-04-21 01:34:00,
2013-04-20 21:40:00,46.3,30.1,30.31,SSW,203,0.0,0.0,53,0.00,,,0.00,Wunderground v.1.15,2013-04-21 01:40:00,
2013-04-20 21:45:00,46.2,30.0,30.31,SSW,197,0.0,1.0,53,0.00,,,0.00,Wunderground v.1.15,2013-04-21 01:45:00,
2013-04-20 21:51:00,46.1,30.4,30.31,SSW,197,1.0,1.0,54,0.00,,,0.00,Wunderground v.1.15,2013-04-21 01:51:00,
2013-04-20 21:56:00,46.0,29.8,30.31,SSW,200,1.0,1.0,53,0.00,,,0.00,Wunderground v.1.15,2013-04-21 01:56:00,
2013-04-20 22:01:00,46.0,30.3,30.31,SSW,200,0.0,1.0,54,0.00,,,0.00,Wunderground v.1.15,2013-04-21 02:01:00,
2013-04-20 22:07:00,45.9,30.2,30.31,SSW,200,0.0,1.0,54,0.00,,,0.00,Wunderground v.1.15,2013-04-21 02:07:00,
2013-04-20 22:13:00,45.9,30.2,30.32,SSW,200,1.0,1.0,54,0.00,,,0.00,Wunderground v.1.15,2013-04-21 02:13:00,
2013-04-20 22:18:00,45.9,29.7,30.31,SSW,200,1.0,1.0,53,0.00,,,0.00,Wunderground v.1.15,2013-04-21 02:18:00,
2013-04-20 22:26:00,45.9,29.0,30.32,SSW,200,0.0,1.0,53,0.00,,,0.00,weatherlink.com 1.10,2013-04-21 02:26:00,
2013-04-20 22:41:00,45.7,30.0,30.32,SSW,201,1.0,1.0,54,0.00,,,0.00,weatherlink.com 1.10,2013-04-21 02:41:00,
2013-04-20 22:57:00,45.5,30.0,30.32,SSW,205,1.0,1.0,54,0.00,,,0.00,weatherlink.com 1.10,2013-04-21 02:57:00,
2013-04-20 23:12:00,45.4,29.0,30.32,SSW,204,0.0,1.0,53,0.00,,,0.00,weatherlink.com 1.10,2013-04-21 03:12:00,
2013-04-20 23:27:00,45.4,29.0,30.32,SSW,205,0.0,1.0,54,0.00,,,0.00,weatherlink.com 1.10,2013-04-21 03:27:00,
2013-04-20 23:42:00,45.0,30.0,30.33,SSW,205,0.0,1.0,55,0.00,,,0.00,weatherlink.com 1.10,2013-04-21 03:42:00,
2013-04-20 23:57:00,44.9,29.0,30.33,SSW,205,0.0,1.0,54,0.00,,,0.00,weatherlink.com 1.10,2013-04-21 03:57:00,